Location: Appletree Creek
(38.7363°N, 122.6833°W)
Time: 09:25:50
(UTC+00:00)

METEOR-M - Pass Details

Date: 18 September 2020
Orbit: 816 x 819 km, 98.5° (Epoch: 21 October)

Event Time Altitude Azimuth Distance (km) Brightness Sun altitude
Rises 13:04:22 0° 12° (NNE) 3,357 7.6 -10.7°
Reaches altitude 10° 13:06:44 10° 12° (NNE) 2,421 6.9 -10.3°
Maximum altitude 13:12:06 85° 284° (WNW) 827 4.1 -9.2°
Drops below altitude 10° 13:17:26 10° 197° (SSW) 2,402 6.3 -8.2°
Sets 13:19:45 0° 197° (SSW) 3,330 7.1 -7.8°
